Theta_e
304 306 314 321 323 319 319 320 319 321 322 323 322 322 322 323 326 329 320 319 319 336 338 339 340 340 340 339 336 336 335 334 332 330 328 327 330 329 327 331 334 333 332 328 326 320 323 323 325
304 310 321 322 318 318 317 317 319 320 318 317 320 320 321 324 323 316 317 315 314 333 337 340 339 339 339 338 338 336 334 332 331 330 329 327 331 333 330 334 334 333 332 330 328 330 330 329 330
308 320 322 319 316 313 314 316 315 315 315 314 316 318 320 322 317 311 309 311 313 326 336 338 341 339 338 338 337 336 333 330 329 328 328 327 330 329 331 333 334 334 333 331 330 331 333 330 331
315 317 315 318 316 316 314 316 315 314 316 314 313 313 318 317 316 310 309 310 313 313 331 336 341 343 339 339 335 333 332 329 327 324 325 330 332 330 327 332 334 333 333 332 328 330 328 331 331
315 317 315 314 313 313 314 314 311 312 313 314 312 313 314 315 314 310 311 311 310 310 318 332 338 339 340 341 339 334 331 328 329 328 327 332 333 331 329 331 333 332 332 330 329 327 326 326 326
312 311 312 312 313 313 311 309 309 310 310 310 310 307 310 315 315 308 309 309 309 307 310 319 332 337 338 340 339 338 334 327 327 330 332 332 332 331 332 329 330 331 331 329 324 327 327 327 325
311 312 311 310 311 311 309 308 307 307 307 308 306 306 309 313 307 305 305 304 303 305 306 307 316 328 335 337 339 338 338 332 328 329 331 332 332 331 331 329 330 329 328 324 329 330 328 327 326
309 311 310 310 309 311 307 306 305 304 304 305 304 305 307 305 303 303 303 303 305 306 306 307 306 314 325 334 337 339 337 337 331 328 330 331 332 332 330 330 329 327 324 327 328 326 325 326 326
305 307 308 308 308 308 305 303 303 303 302 303 303 303 303 304 304 304 304 304 304 305 306 306 306 305 313 322 329 335 338 337 336 332 328 331 331 330 331 331 329 324 321 330 329 326 326 325 324
306 308 306 304 303 303 303 303 303 303 303 303 304 305 305 305 304 304 305 305 305 305 305 305 305 305 303 309 317 327 333 337 336 335 333 328 328 328 330 331 329 323 326 330 329 326 325 326 324
305 306 304 303 303 302 302 302 304 304 303 304 305 305 305 304 304 304 304 304 304 304 304 304 305 305 305 302 305 313 323 331 335 335 334 334 330 329 330 330 324 325 330 330 328 326 326 324 324
305 304 302 303 303 302 303 304 304 304 304 305 304 304 304 304 304 304 303 302 302 302 303 304 304 305 305 305 303 305 311 321 329 334 335 335 334 332 331 331 331 329 329 329 327 325 325 324 322
305 305 305 305 304 304 304 304 303 304 304 304 304 303 303 303 303 303 301 300 300 300 300 301 302 304 305 305 304 303 305 310 319 327 333 334 335 334 333 331 333 331 329 328 327 325 324 323 322
304 304 304 305 304 304 304 303 303 304 304 304 304 303 303 303 303 300 299 298 298 298 298 298 299 301 303 305 304 303 303 305 308 317 328 331 332 335 333 332 334 333 330 328 326 324 324 322 321
304 305 305 306 305 304 302 303 303 304 304 304 304 303 303 302 300 299 298 298 297 297 297 297 298 298 301 304 304 305 303 303 305 308 317 327 332 333 333 333 332 333 333 329 326 325 325 324 322
305 306 306 307 305 304 303 302 304 305 304 304 303 303 302 300 299 299 298 297 296 296 296 296 296 298 298 301 303 304 304 303 303 304 309 315 324 326 331 329 331 333 333 330 326 326 326 325 322
307 303 305 305 305 305 304 302 303 304 304 303 303 301 299 299 299 298 297 296 296 295 295 295 295 297 298 299 301 303 304 305 304 303 304 310 312 319 324 329 327 331 330 331 327 327 326 325 324
302 304 304 304 305 305 303 303 303 304 302 302 300 300 300 299 298 297 296 295 294 294 294 294 295 296 298 299 300 302 303 304 305 303 302 303 308 311 317 322 326 327 328 330 329 327 326 325 324
303 304 304 305 304 303 303 302 302 303 301 301 300 299 298 298 297 296 295 294 294 293 293 294 295 296 298 299 301 302 303 303 304 306 303 302 304 309 313 318 323 326 328 328 328 328 327 325 324
303 304 304 304 303 302 302 302 302 302 301 300 299 299 298 297 296 295 293 293 293 292 292 293 294 295 296 298 301 302 302 305 306 306 305 303 303 306 313 320 323 324 326 327 328 328 327 325 324
303 303 301 301 302 302 302 302 303 302 301 300 299 298 297 296 294 293 292 292 292 292 292 293 294 294 295 297 299 302 302 303 306 308 309 307 305 306 309 311 320 325 325 327 326 325 325 326 324
301 303 302 301 297 299 301 299 302 302 302 300 299 298 297 295 293 292 292 291 291 291 292 292 294 295 296 297 299 301 303 304 304 306 306 305 305 309 312 319 317 319 321 323 324 328 327 326 325
302 301 301 302 297 298 302 298 302 301 301 298 297 297 296 294 292 291 290 290 289 290 290 292 293 295 297 299 301 301 303 303 306 307 308 309 309 310 311 315 320 322 321 320 321 326 324 326 325
302 301 301 301 297 301 296 296 299 301 299 296 297 296 295 293 291 290 289 289 288 289 290 290 292 295 298 300 303 303 302 304 306 307 308 310 311 310 312 315 318 324 323 323 322 325 325 326 325
300 297 298 298 300 300 293 298 298 299 297 296 295 295 293 292 290 289 288 288 288 288 289 290 291 294 297 300 302 303 302 305 306 308 309 310 310 309 309 313 318 320 322 322 322 322 325 326 326
300 297 296 296 298 300 294 296 300 297 298 296 295 294 292 291 289 288 288 287 287 287 288 289 291 293 295 299 301 305 305 306 307 306 308 308 308 308 309 309 313 317 323 323 322 323 322 325 325
300 299 298 294 293 297 296 299 299 297 292 294 294 293 291 290 289 288 287 286 286 287 288 289 290 292 294 298 300 302 306 306 306 307 307 309 309 307 308 310 310 312 314 323 321 321 321 321 321
298 297 295 294 296 296 296 295 298 290 289 291 292 292 291 290 289 287 286 286 286 286 287 288 290 292 294 296 298 300 301 302 302 303 303 303 305 307 307 308 311 312 313 319 321 322 322 323 322
297 296 294 294 297 300 297 296 292 289 288 289 290 292 291 290 289 287 286 285 285 285 286 287 288 291 294 295 297 298 299 300 301 301 302 301 304 306 307 309 312 311 314 318 324 324 322 322 322
299 297 298 293 293 298 300 299 293 289 288 293 293 292 291 290 289 288 286 285 284 284 285 285 287 290 294 295 295 296 297 298 301 303 304 303 304 307 307 308 309 311 312 316 319 322 322 323 322
Wind_Speed
4 9 8 2 2 3 5 6 5 2 3 11 7 7 7 15 6 2 3 7 14 8 5 5 6 12 14 15 15 15 14 14 14 14 13 11 11 12 13 14 14 11 9 4 4 7 9 9 9
4 10 6 5 3 5 5 11 6 8 8 10 6 7 6 3 12 6 4 11 15 9 5 2 7 10 15 17 16 17 16 15 15 16 15 13 12 13 14 15 14 12 9 5 7 9 11 10 12
8 6 4 3 4 4 5 8 9 8 10 10 8 5 6 5 7 6 6 8 10 7 6 6 6 10 14 16 18 18 18 18 18 18 16 16 16 14 14 16 15 14 10 8 10 11 13 11 16
4 3 6 4 10 9 7 10 10 7 5 5 8 7 4 3 1 5 7 10 11 13 6 7 8 11 14 16 18 20 20 20 19 19 19 19 17 15 16 18 17 14 12 11 12 13 12 13 17
4 6 3 5 11 10 6 16 11 4 8 2 7 6 9 1 3 6 10 11 14 14 12 8 12 12 15 20 18 19 21 21 20 20 20 20 18 16 17 19 19 17 15 14 13 15 17 16 17
5 5 4 7 10 10 9 16 9 6 10 12 6 9 6 1 1 12 16 17 17 17 16 12 13 15 15 19 22 21 20 22 23 23 22 22 20 18 19 20 20 20 18 17 18 17 16 16 18
3 3 5 9 10 8 6 15 14 8 10 5 6 4 5 6 8 17 21 22 22 17 21 19 14 15 19 15 22 24 23 23 23 25 24 24 22 21 21 21 22 22 20 18 18 17 16 16 17
5 2 4 4 4 1 5 8 8 10 6 10 4 4 5 21 26 21 21 22 16 17 18 18 19 17 19 20 20 24 27 25 26 26 26 26 25 23 24 23 23 23 21 22 19 18 18 18 18
2 2 4 6 7 4 14 10 11 9 12 17 15 18 21 19 18 24 23 19 18 16 15 17 23 18 19 22 21 23 26 28 29 28 30 29 28 27 26 26 26 25 24 24 22 18 18 19 18
3 2 7 5 8 7 13 11 13 9 18 21 20 11 11 20 22 21 18 18 19 20 20 19 20 23 19 20 23 24 24 23 32 32 31 31 31 32 30 28 27 27 27 27 24 20 17 20 18
6 3 6 7 9 9 10 15 14 13 8 18 20 22 22 21 17 16 18 18 20 22 23 22 21 22 25 20 21 23 26 25 22 29 35 34 34 34 33 33 32 32 31 31 27 24 22 21 20
4 3 4 7 9 6 9 15 14 24 25 22 18 21 18 15 15 17 18 22 25 25 22 20 20 20 22 25 20 23 23 25 25 27 29 37 38 38 38 37 36 38 37 36 32 31 29 25 22
2 7 8 10 10 12 11 15 13 27 24 17 13 12 14 16 18 21 22 21 23 24 28 29 26 23 22 23 26 21 25 23 26 28 32 30 40 44 43 41 40 40 40 40 38 35 33 30 27
6 10 16 7 5 8 9 20 11 9 10 16 12 15 20 22 20 20 22 23 26 28 30 30 30 28 23 24 26 26 25 28 26 26 30 38 39 40 47 44 43 43 42 41 40 39 37 34 29
6 5 10 8 4 3 6 9 7 9 8 10 14 19 18 13 15 18 19 23 27 30 34 35 32 29 28 24 22 24 27 28 31 30 28 34 34 32 36 44 50 48 45 43 42 40 37 32 32
4 0 5 2 7 5 3 9 12 9 12 18 18 13 8 11 13 18 21 27 32 36 38 39 36 32 30 30 29 29 29 28 32 33 33 32 35 31 30 33 38 52 52 47 43 40 37 35 33
4 3 6 7 7 4 2 11 9 25 21 13 10 5 8 12 15 21 26 29 31 33 36 36 35 32 30 29 29 30 29 27 29 33 34 37 32 31 30 31 42 34 46 52 46 43 40 39 36
4 4 4 10 7 14 11 18 18 20 7 5 3 4 9 15 21 28 32 39 40 35 31 30 30 30 28 28 29 29 30 29 31 33 34 34 36 31 27 28 22 31 35 35 48 43 42 42 38
6 8 10 13 11 8 9 19 21 8 4 4 4 9 15 20 27 32 33 34 36 31 31 29 29 28 26 26 26 26 26 28 29 31 31 32 34 32 27 26 26 21 31 53 39 44 44 43 40
7 9 8 10 11 13 13 18 17 10 6 3 4 10 19 27 31 31 30 29 31 34 32 31 31 32 33 29 22 26 26 23 25 28 29 27 29 31 27 22 23 21 27 31 32 32 41 43 42
6 5 5 11 15 8 7 8 5 5 6 6 6 15 24 29 32 32 30 29 30 34 33 29 30 31 30 29 27 24 28 29 27 23 24 26 25 26 30 30 29 27 18 24 35 44 43 33 35
4 8 12 13 5 3 6 4 7 9 7 7 8 21 28 29 30 29 29 29 29 29 30 30 32 29 28 27 27 25 28 25 30 26 26 25 19 23 24 23 28 33 34 28 30 36 41 41 37
8 12 15 7 2 4 2 1 4 7 3 5 12 26 27 28 30 32 31 31 31 30 30 28 31 27 24 21 25 25 27 28 20 22 20 21 22 25 21 24 24 28 28 39 31 38 47 51 44
9 7 10 3 2 3 2 3 5 2 2 8 17 25 27 32 31 32 32 33 35 32 30 29 27 25 18 18 14 17 26 20 22 24 22 19 20 21 18 19 23 24 22 24 29 32 48 41 48
7 6 4 5 2 5 5 3 9 4 3 9 17 27 29 32 32 33 33 33 32 30 30 26 25 23 16 15 7 14 15 16 19 18 17 20 20 20 20 19 18 24 26 26 26 24 27 42 47
3 2 3 4 4 7 5 5 6 6 9 15 18 22 27 30 31 32 32 32 29 27 26 26 23 21 16 11 8 6 13 15 17 15 15 14 16 17 17 23 27 14 22 20 27 37 31 36 39
2 1 2 2 2 2 5 7 3 3 4 13 19 20 25 28 31 31 32 31 26 24 24 23 19 18 15 9 11 6 14 11 11 18 15 13 17 19 16 18 26 30 22 23 24 28 36 37 34
2 1 2 0 4 5 5 7 5 5 6 8 10 16 24 29 32 33 32 30 26 23 23 21 17 17 16 12 9 12 13 15 15 15 15 16 14 16 18 18 25 25 28 18 27 28 26 32 37
2 1 2 1 2 3 4 6 6 7 4 7 9 19 27 31 32 34 32 28 26 24 22 20 17 15 15 13 12 12 12 13 17 17 15 14 15 15 18 14 20 23 21 15 24 29 29 32 34
1 3 3 3 5 4 2 9 5 7 6 6 10 23 28 30 31 32 32 30 28 26 23 22 17 13 10 10 11 11 11 11 11 12 15 13 11 13 16 13 7 17 20 15 14 20 34 27 34
Wind_Direction
165 134 134 195 239 228 270 246 244 106 28 20 9 334 344 323 347 105 227 346 344 359 328 344 258 223 223 217 214 218 218 222 225 220 223 220 207 193 186 182 183 183 178 194 187 155 146 155 154
159 118 129 248 251 237 254 246 182 49 36 1 330 272 270 86 59 87 163 343 356 356 327 272 227 222 226 223 218 223 222 223 226 226 224 222 214 204 198 195 193 186 184 198 186 160 156 163 154
140 130 241 196 206 224 269 61 56 28 32 19 332 8 358 43 41 75 11 358 357 2 312 265 243 220 236 232 226 226 225 226 226 228 227 226 217 212 210 205 202 198 199 209 206 184 184 176 175
113 249 271 262 244 258 280 87 75 6 107 72 12 295 67 77 86 47 342 353 350 354 326 258 260 230 221 241 242 228 228 228 227 228 230 226 219 219 213 209 210 210 207 211 213 200 197 194 196
139 252 249 233 254 273 334 68 46 9 323 17 46 303 353 128 105 323 319 340 346 352 338 292 249 242 243 232 240 242 236 228 225 226 227 224 224 224 219 213 215 218 221 220 231 225 223 215 223
247 287 249 239 251 256 67 35 14 354 353 347 354 353 305 135 350 324 319 331 333 339 323 319 280 260 254 241 236 239 241 236 227 228 226 224 226 226 221 222 219 223 221 235 232 225 221 225 229
273 215 262 282 286 315 52 3 35 12 332 1 356 305 258 101 348 322 316 321 324 319 313 310 301 285 270 265 241 238 235 238 234 231 232 231 228 226 224 225 224 226 228 225 211 221 227 232 236
337 324 287 256 290 43 58 16 35 353 320 332 297 256 296 312 324 335 315 318 332 320 317 309 296 289 286 270 255 242 241 237 236 235 233 236 234 231 229 227 226 230 227 216 212 221 233 227 236
6 291 268 346 23 8 17 2 334 326 289 288 273 274 286 309 312 318 326 327 317 324 316 310 303 288 282 281 271 254 246 239 240 237 235 232 232 232 230 228 227 226 222 215 218 229 228 227 232
343 279 31 1 6 348 339 326 321 316 302 292 297 310 310 314 326 330 330 329 325 324 316 310 302 303 284 278 280 270 255 243 241 242 236 234 234 233 230 227 225 224 216 216 221 227 224 223 230
4 329 11 16 15 348 318 309 317 313 274 287 325 319 317 316 325 323 326 325 318 307 305 309 314 313 303 282 275 274 270 256 241 244 243 238 234 233 232 230 226 218 214 211 218 220 219 224 222
331 52 346 326 330 324 309 303 292 279 273 285 301 306 308 313 317 321 327 318 323 319 309 305 299 294 299 296 277 271 268 264 255 246 238 242 236 234 228 228 222 216 213 212 216 216 218 223 221
289 5 316 298 284 295 293 285 283 288 290 285 301 313 314 311 312 318 327 326 316 313 305 300 293 287 288 285 285 271 265 261 255 253 242 238 240 238 232 226 221 218 216 215 215 218 219 221 219
330 299 284 267 264 286 309 300 312 268 285 298 298 308 310 309 311 327 329 323 321 318 319 317 310 294 281 285 281 277 266 259 257 250 250 244 238 239 242 229 224 223 222 219 219 220 219 221 222
297 298 286 204 186 279 347 285 191 258 285 267 282 291 309 305 317 324 319 314 310 313 314 315 309 304 285 266 268 271 268 263 256 253 247 246 247 245 247 228 228 227 225 224 219 220 222 220 220
278 159 355 143 192 166 110 279 299 318 308 289 296 307 309 311 310 310 310 309 310 308 307 303 301 297 293 281 263 261 264 262 260 256 251 248 249 255 255 257 240 220 229 222 218 214 217 221 219
60 268 297 316 223 243 207 274 263 295 289 311 308 321 312 300 304 310 312 312 307 301 300 297 295 293 292 287 277 265 257 259 260 259 254 251 252 255 259 259 241 244 238 218 213 210 215 218 222
306 309 315 303 305 300 290 271 280 303 327 318 27 288 299 313 313 315 314 308 305 309 309 303 294 289 287 283 279 267 259 252 257 259 257 255 253 253 257 257 260 244 245 208 203 208 209 219 224
298 292 288 287 306 309 278 291 288 267 161 191 231 326 319 315 318 314 310 308 306 312 309 308 305 299 294 287 286 276 268 263 253 261 261 257 253 249 251 257 253 255 233 228 215 206 208 215 221
293 285 283 283 323 322 293 291 279 260 190 171 314 302 323 323 319 319 316 313 309 308 308 299 293 287 274 270 261 275 267 252 263 253 264 262 258 250 244 248 251 247 231 229 211 217 205 208 214
288 260 322 302 333 274 297 283 158 155 162 210 256 317 324 325 326 322 320 318 316 313 314 312 303 301 296 290 272 260 260 244 241 240 244 254 264 257 246 245 239 238 252 242 237 229 228 216 199
287 1 325 315 29 304 49 281 308 135 191 187 320 327 325 328 325 322 322 321 321 317 315 310 304 303 295 291 282 260 262 244 243 242 245 254 257 257 246 242 242 237 242 246 252 222 213 228 197
248 321 291 290 91 345 182 77 257 149 210 348 335 328 326 333 331 329 326 324 321 319 315 315 308 308 296 286 278 254 256 235 240 244 242 250 247 252 250 250 241 236 239 244 248 242 226 219 218
317 304 306 98 155 257 192 79 265 225 296 326 335 327 335 336 333 326 326 326 323 325 323 318 316 313 303 298 283 262 243 225 242 237 236 246 253 250 247 246 243 232 225 227 237 233 227 214 228
20 359 334 347 253 242 218 306 251 151 32 2 333 330 338 334 332 329 329 330 326 323 322 321 319 317 317 304 287 258 235 229 230 233 244 237 245 252 254 243 255 232 234 224 222 226 216 213 217
38 65 127 279 309 298 227 237 261 141 38 355 329 330 332 331 333 329 328 328 328 328 326 324 323 319 325 306 316 201 212 216 222 229 235 247 253 256 257 249 237 249 219 223 218 218 217 217 214
129 256 29 268 237 308 239 275 63 91 349 348 338 337 331 334 332 332 333 332 332 327 326 330 328 326 329 317 302 273 204 201 219 222 222 235 248 259 258 264 249 243 268 217 217 214 220 223 227
145 114 14 265 306 296 290 287 245 306 318 316 320 332 335 336 337 339 339 338 337 333 330 336 338 339 339 329 297 279 262 244 242 244 245 246 256 262 253 273 250 243 252 232 219 218 226 223 220
141 232 248 131 204 274 304 264 200 199 234 274 299 343 342 345 344 346 346 346 343 339 342 338 341 345 346 335 307 278 266 264 256 252 257 258 252 256 255 267 240 240 244 237 203 219 228 230 237
97 233 163 138 270 237 253 269 165 183 211 247 349 360 348 354 352 353 354 353 351 349 350 346 346 344 337 335 320 300 277 268 262 255 251 252 261 245 251 261 269 234 235 230 207 219 226 234 236